カタログに戻る

QIANFAN-10

運用中通信PO
NORAD 60388·PAYLOAD·🇨🇳 China

打ち上げ Aug 6, 2024 から Taiyuan Satellite Launch Center

Loading…

次のパス (今後24時間)

TLE

最新Source: Space-Track

元期: Sep 14, 2026, 13:45 UTC

1 60388U 24140K   26257.57308133  .00000013  00000-0  94229-6 0  9994
2 60388  88.9680 270.0901 0016844  97.6013 262.7052 13.51021694104702

AllMySatでQIANFAN-10をリアルタイム追跡

Download on the App Store